Craig, CO

4:21 PM MST on November 24, 2017 (GMT -0700)
Craig-Moffat

Weather History for KCAG - January, 2014

Change the Weather History Date:

Monday, January 20, 2014

  Actual Average Record
Temperature  
Mean Temperature 13 °F 16 °F  
Max Temperature 29 °F 30 °F 48 °F (2012)
Min Temperature -3 °F 2 °F -15 °F (2013)
Degree Days  
Heating Degree Days 52 49  
Month to date heating degree days 995 995  
Since 1 July heating degree days 4528 4551  
Cooling Degree Days 0 0  
Month to date cooling degree days 0 0  
Year to date cooling degree days 0 0  
Moisture  
Dew Point 5 °F    
Average Humidity 79    
Maximum Humidity 95    
Minimum Humidity 63    
Precipitation  
Precipitation 0.00 in 0.03 in 0.22 in (2001)
Month to date precipitation 0.69 0.54  
Year to date precipitation 0.69 0.54  
Sea Level Pressure  
Sea Level Pressure 30.65 in    
Wind  
Wind Speed 0 mph (WSW)    
Max Wind Speed 8 mph    
Max Gust Speed 9 mph    
Visibility 10 miles    
Events      
T = Trace of Precipitation, MM = Missing Value Source: NWS Daily Summary

Daily Weather History Graph

Daily Weather History Graph

Search for Another Location

Airport or City:

Trip Planner

Search our weather history database for the weather conditions in past years. The results will help you decide how hot, cold, wet, or windy it might be!

Date:

Astronomy

Jan. 20, 2014 Rise Set
Actual Time 7:28 AM MST 5:13 PM MST
Civil Twilight 6:59 AM MST 5:43 PM MST
Nautical Twilight 6:25 AM MST 6:16 PM MST
Astronomical Twilight 5:53 AM MST 6:49 PM MST
Moon 9:52 PM MST (1/20) 9:28 AM MST (1/20)
Length of Visible Light 10h 44m
Length of Day
9h 45m
Waning Gibbous, 82% of the Moon is Illuminated
Jan 20
Waning Gibbous
Jan 23
Last Quarter
Jan 30
New
Feb 6
First Quarter
Feb 14
Full

Hourly Weather History & Observations

Time (MST) Temp. Windchill Dew Point Humidity Pressure Visibility Wind Dir Wind Speed Gust Speed Precip Events Conditions
12:53 AM 1.0 °F - -2.9 °F 83% 30.48 in 10.0 mi Calm Calm - N/A   Clear
1:53 AM 1.9 °F - -0.0 °F 91% 30.45 in 10.0 mi Calm Calm - N/A   Clear
2:53 AM 3.0 °F - -0.9 °F 84% 30.47 in 10.0 mi Calm Calm - N/A   Clear
3:53 AM 3.9 °F - -0.0 °F 84% 30.48 in 10.0 mi Calm Calm - N/A   Clear
4:53 AM 5.0 °F - 1.0 °F 84% 30.50 in 10.0 mi Calm Calm - N/A   Clear
5:53 AM 8.1 °F - 3.0 °F 80% 30.52 in 10.0 mi Calm Calm - N/A   Clear
6:53 AM 3.9 °F -3.4 °F 1.0 °F 88% 30.58 in 10.0 mi NW 3.5 mph - N/A   Clear
7:53 AM 8.1 °F 1.4 °F 3.9 °F 83% 30.62 in 10.0 mi SW 3.5 mph - N/A   Scattered Clouds
8:53 AM 8.1 °F - 3.9 °F 83% 30.67 in 10.0 mi Calm Calm - N/A   Clear
9:53 AM 12.0 °F - 9.0 °F 88% 30.69 in 10.0 mi Calm Calm - N/A   Scattered Clouds
10:53 AM 17.1 °F - 10.0 °F 74% 30.69 in 10.0 mi Calm Calm - N/A   Clear
11:53 AM 19.0 °F - 12.0 °F 74% 30.69 in 10.0 mi Calm Calm - N/A   Clear
12:53 PM 23.0 °F - 14.0 °F 68% 30.66 in 10.0 mi Calm Calm - N/A   Clear
1:53 PM 26.1 °F - 16.0 °F 66% 30.63 in 10.0 mi Calm Calm - N/A   Clear
2:53 PM 28.0 °F - 17.1 °F 63% 30.64 in 10.0 mi Calm Calm - N/A   Clear
3:53 PM 26.1 °F - 16.0 °F 66% 30.68 in 10.0 mi Calm Calm - N/A   Clear
4:53 PM 19.9 °F 14.9 °F 12.0 °F 71% 30.70 in 10.0 mi SSW 3.5 mph - N/A   Clear
5:53 PM 14.0 °F - 8.1 °F 77% 30.73 in 10.0 mi Calm Calm - N/A   Clear
6:53 PM 8.1 °F - 5.0 °F 87% 30.79 in 10.0 mi Calm Calm - N/A   Clear
7:53 PM 7.0 °F - 3.0 °F 84% 30.79 in 10.0 mi Calm Calm - N/A   Clear
8:53 PM 5.0 °F - -0.0 °F 80% 30.81 in 10.0 mi Calm Calm - N/A   Clear
9:53 PM 1.0 °F - -2.9 °F 83% 30.82 in 10.0 mi Calm Calm - N/A   Clear
10:53 PM -2.9 °F - -6.0 °F 87% 30.83 in 10.0 mi Calm Calm - N/A   Clear
11:53 PM -0.9 °F - -5.1 °F 83% 30.81 in 10.0 mi Calm Calm - N/A   Clear